TimeEST,TemperatureF,Dew PointF,Humidity,Sea Level PressureIn,VisibilityMPH,Wind Direction,Wind SpeedMPH,Gust SpeedMPH,PrecipitationIn,Events,Conditions,WindDirDegrees,DateUTC
12:01 AM,39.2,32.0,75,29.96,10.0,WNW,13.8,23.0,N/A,,Mostly Cloudy,290,2010-01-01 05:01:00
12:21 AM,39.2,32.0,75,29.96,10.0,WNW,17.3,-,N/A,,Scattered Clouds,290,2010-01-01 05:21:00
12:41 AM,39.2,32.0,75,29.95,10.0,West,16.1,26.5,N/A,,Mostly Cloudy,280,2010-01-01 05:41:00
1:01 AM,39.2,32.0,75,29.95,10.0,West,13.8,21.9,N/A,,Overcast,270,2010-01-01 06:01:00
1:21 AM,39.2,32.0,75,29.95,10.0,WNW,11.5,19.6,N/A,,Overcast,290,2010-01-01 06:21:00
1:42 AM,39.2,32.0,75,29.94,10.0,West,10.4,-,N/A,,Overcast,280,2010-01-01 06:42:00
2:01 AM,39.2,32.0,75,29.95,10.0,WNW,10.4,17.3,N/A,,Overcast,290,2010-01-01 07:01:00
2:21 AM,39.2,32.0,75,29.95,10.0,NW,4.6,9.2,N/A,,Overcast,310,2010-01-01 07:21:00
2:41 AM,39.2,32.0,75,29.95,10.0,Calm,Calm,-,N/A,,Drizzle,0,2010-01-01 07:41:00
3:01 AM,37.4,33.8,87,29.94,7.0,NNW,3.5,-,N/A,Rain,Light Rain,330,2010-01-01 08:01:00
3:21 AM,37.4,32.0,81,29.95,7.0,NW,4.6,-,N/A,,Drizzle,310,2010-01-01 08:21:00
3:42 AM,37.4,32.0,81,29.95,10.0,Calm,Calm,-,N/A,,Light Drizzle,0,2010-01-01 08:42:00
4:01 AM,37.4,32.0,81,29.94,10.0,NNW,6.9,-,N/A,,Light Drizzle,340,2010-01-01 09:01:00
4:21 AM,35.6,32.0,87,29.94,10.0,NW,3.5,-,N/A,,Light Drizzle,310,2010-01-01 09:21:00
4:41 AM,35.6,32.0,87,29.93,5.0,NW,6.9,-,N/A,Snow,Light Snow,310,2010-01-01 09:41:00
5:01 AM,35.6,32.0,87,29.93,10.0,NW,5.8,-,N/A,,Overcast,320,2010-01-01 10:01:00
5:21 AM,35.6,30.2,81,29.93,7.0,NNW,6.9,-,N/A,Snow,Light Snow,330,2010-01-01 10:21:00
5:41 AM,35.6,30.2,81,29.94,10.0,Calm,Calm,-,N/A,,Overcast,0,2010-01-01 10:41:00
6:01 AM,35.6,30.2,81,29.94,10.0,NNW,3.5,-,N/A,,Overcast,330,2010-01-01 11:01:00
6:21 AM,33.8,30.2,87,29.93,4.0,NNW,4.6,-,N/A,Snow,Light Snow,340,2010-01-01 11:21:00
6:41 AM,33.8,30.2,87,29.93,3.0,NW,9.2,-,N/A,Snow,Light Snow,320,2010-01-01 11:41:00
7:01 AM,33.8,30.2,87,29.92,3.0,NW,8.1,23.0,N/A,Snow,Light Snow,310,2010-01-01 12:01:00
7:21 AM,33.8,30.2,87,29.93,4.0,NW,6.9,23.0,N/A,,Haze,310,2010-01-01 12:21:00
7:41 AM,33.8,28.4,81,29.92,7.0,NW,9.2,24.2,N/A,,Overcast,320,2010-01-01 12:41:00
8:01 AM,33.8,28.4,81,29.93,10.0,NW,10.4,31.1,N/A,,Overcast,310,2010-01-01 13:01:00
8:21 AM,33.8,26.6,75,29.95,10.0,WNW,8.1,21.9,N/A,,Overcast,300,2010-01-01 13:21:00
8:41 AM,33.8,26.6,75,29.95,10.0,NW,12.7,28.8,N/A,,Overcast,320,2010-01-01 13:41:00
9:01 AM,33.8,24.8,70,29.94,10.0,NW,15.0,23.0,N/A,,Overcast,310,2010-01-01 14:01:00
9:21 AM,33.8,24.8,70,29.95,10.0,WNW,18.4,28.8,N/A,,Overcast,300,2010-01-01 14:21:00
9:41 AM,33.8,24.8,70,29.96,10.0,NW,11.5,27.6,N/A,,Overcast,320,2010-01-01 14:41:00
10:01 AM,32.0,24.8,75,29.96,10.0,NW,12.7,23.0,N/A,,Overcast,310,2010-01-01 15:01:00
10:22 AM,32.0,24.8,75,29.95,10.0,NW,13.8,24.2,N/A,,Overcast,320,2010-01-01 15:22:00
10:41 AM,32.0,24.8,75,29.95,10.0,NNW,17.3,21.9,N/A,,Overcast,330,2010-01-01 15:41:00
11:02 AM,33.8,23.0,65,29.94,10.0,NNW,13.8,20.7,N/A,,Overcast,330,2010-01-01 16:02:00
11:21 AM,33.8,24.8,70,29.94,10.0,NW,12.7,23.0,N/A,,Overcast,320,2010-01-01 16:21:00
11:41 AM,33.8,23.0,65,29.94,10.0,NW,10.4,19.6,N/A,,Overcast,310,2010-01-01 16:41:00
12:01 PM,33.8,23.0,65,29.93,10.0,WNW,8.1,24.2,N/A,,Overcast,300,2010-01-01 17:01:00
12:22 PM,33.8,23.0,65,29.93,10.0,WNW,10.4,19.6,N/A,,Overcast,290,2010-01-01 17:22:00
12:41 PM,33.8,21.2,60,29.92,10.0,NW,9.2,18.4,N/A,,Overcast,310,2010-01-01 17:41:00
1:01 PM,33.8,21.2,60,29.92,10.0,NW,10.4,21.9,N/A,,Overcast,310,2010-01-01 18:01:00
1:21 PM,33.8,21.2,60,29.91,10.0,WNW,15.0,27.6,N/A,,Overcast,290,2010-01-01 18:21:00
1:41 PM,33.8,21.2,60,29.90,10.0,WNW,21.9,29.9,N/A,,Mostly Cloudy,300,2010-01-01 18:41:00
2:01 PM,33.8,19.4,56,29.91,10.0,WNW,12.7,23.0,N/A,,Mostly Cloudy,290,2010-01-01 19:01:00
2:22 PM,33.8,21.2,60,29.91,10.0,WNW,11.5,25.3,N/A,,Overcast,300,2010-01-01 19:22:00
2:41 PM,32.0,21.2,64,29.91,10.0,WNW,12.7,23.0,N/A,,Overcast,300,2010-01-01 19:41:00
3:01 PM,32.0,21.2,64,29.91,10.0,NW,11.5,24.2,N/A,,Overcast,320,2010-01-01 20:01:00
3:22 PM,32.0,21.2,64,29.91,10.0,WNW,13.8,24.2,N/A,,Overcast,300,2010-01-01 20:22:00
3:41 PM,32.0,19.4,60,29.91,10.0,WNW,18.4,29.9,N/A,,Overcast,300,2010-01-01 20:41:00
4:01 PM,32.0,17.6,55,29.90,10.0,WNW,17.3,25.3,N/A,,Mostly Cloudy,290,2010-01-01 21:01:00
4:21 PM,30.2,17.6,60,29.91,10.0,WNW,5.8,29.9,N/A,,Scattered Clouds,300,2010-01-01 21:21:00
4:41 PM,30.2,17.6,60,29.91,10.0,WNW,16.1,26.5,N/A,,Scattered Clouds,290,2010-01-01 21:41:00
5:03 PM,28.4,15.8,59,29.92,10.0,WNW,17.3,28.8,N/A,,Clear,290,2010-01-01 22:03:00
5:22 PM,28.4,15.8,59,29.92,10.0,WNW,17.3,34.5,N/A,,Scattered Clouds,300,2010-01-01 22:22:00
5:41 PM,26.6,15.8,64,29.92,10.0,NW,13.8,35.7,N/A,,Clear,320,2010-01-01 22:41:00
6:01 PM,26.6,14.0,59,29.91,10.0,NW,15.0,27.6,N/A,,Clear,310,2010-01-01 23:01:00
6:21 PM,26.6,15.8,64,29.91,10.0,WNW,12.7,31.1,N/A,,Scattered Clouds,300,2010-01-01 23:21:00
6:45 PM,26.6,14.0,59,29.91,10.0,NW,21.9,35.7,N/A,,Clear,310,2010-01-01 23:45:00
7:01 PM,24.8,14.0,64,29.92,10.0,WNW,23.0,35.7,N/A,,Clear,300,2010-01-02 00:01:00
7:21 PM,24.8,14.0,64,29.92,10.0,WNW,19.6,36.8,N/A,,Clear,300,2010-01-02 00:21:00
7:43 PM,23.0,14.0,68,29.92,10.0,NW,12.7,35.7,N/A,,Clear,310,2010-01-02 00:43:00
8:01 PM,23.0,12.2,63,29.93,10.0,NW,17.3,29.9,N/A,,Clear,310,2010-01-02 01:01:00
8:21 PM,23.0,12.2,63,29.93,10.0,NW,13.8,31.1,N/A,,Scattered Clouds,310,2010-01-02 01:21:00
8:41 PM,23.0,12.2,63,29.94,10.0,West,8.1,24.2,N/A,Snow,Light Snow,270,2010-01-02 01:41:00
9:01 PM,21.2,14.0,74,29.94,10.0,NW,8.1,17.3,N/A,Snow,Light Snow,310,2010-01-02 02:01:00
9:21 PM,21.2,12.2,68,29.94,10.0,WNW,11.5,18.4,N/A,Snow,Light Snow,300,2010-01-02 02:21:00
9:41 PM,21.2,12.2,68,29.93,10.0,NW,10.4,23.0,N/A,Snow,Light Snow,310,2010-01-02 02:41:00
10:01 PM,21.2,12.2,68,29.93,7.0,North,9.2,20.7,N/A,Snow,Light Snow,350,2010-01-02 03:01:00
10:21 PM,21.2,12.2,68,29.93,5.0,NW,10.4,24.2,N/A,Snow,Light Snow,310,2010-01-02 03:21:00
10:41 PM,21.2,12.2,68,29.93,7.0,NNW,9.2,18.4,N/A,Snow,Light Snow,330,2010-01-02 03:41:00
11:01 PM,21.2,12.2,68,29.92,5.0,WNW,15.0,29.9,N/A,Snow,Light Snow,300,2010-01-02 04:01:00
11:21 PM,19.4,12.2,74,29.92,4.0,WNW,12.7,19.6,N/A,Snow,Light Snow,290,2010-01-02 04:21:00
11:41 PM,19.4,12.2,74,29.91,3.0,NW,6.9,21.9,N/A,Snow,Light Snow,310,2010-01-02 04:41:00